| time (UTC) | temp C | wind direction | speed KPH | gust KPH | rain 1hr cm | rain 24hr cm | rain mn cm | humidity % | barometer mb |
| 20260506073050 | 13 | 230 | 0.0 | 1.6 | 0.00 | 0.00 | 0.00 | 73 | 1023.2 |
| 20260506071548 | 14 | 230 | 0.0 | 0.0 | 0.00 | 0.00 | 0.00 | 72 | 1023.1 |
| 20260506061546 | 15 | 260 | 0.0 | 6.4 | 0.00 | 0.00 | 0.00 | 73 | 1022.8 |
| 20260506044546 | 17 | 262 | 4.8 | 14.5 | 0.00 | 0.00 | 0.00 | 66 | 1022.0 |
| 20260506043042 | 18 | 252 | 8.0 | 19.3 | 0.00 | 0.00 | 0.00 | 64 | 1021.8 |
| 20260506041540 | 18 | 269 | 8.0 | 20.9 | 0.00 | 0.00 | 0.00 | 64 | 1021.8 |
| 20260506040055 | 18 | 276 | 9.7 | 17.7 | 0.00 | 0.00 | 0.00 | 62 | 1021.8 |
| 20260506034542 | 18 | 278 | 9.7 | 22.5 | 0.00 | 0.00 | 0.00 | 60 | 1021.7 |
| 20260506033038 | 19 | 272 | 9.7 | 20.9 | 0.00 | 0.00 | 0.00 | 61 | 1021.5 |
| 20260506031552 | 19 | 276 | 9.7 | 17.7 | 0.00 | 0.00 | 0.00 | 58 | 1021.5 |
| 20260506030037 | 20 | 252 | 9.7 | 20.9 | 0.00 | 0.00 | 0.00 | 57 | 1021.5 |
| 20260506024533 | 19 | 250 | 12.9 | 22.5 | 0.00 | 0.00 | 0.00 | 55 | 1021.6 |
| 20260506023032 | 20 | 284 | 11.3 | 22.5 | 0.00 | 0.00 | 0.00 | 55 | 1021.5 |
| 20260506021528 | 20 | 249 | 12.9 | 27.4 | 0.00 | 0.00 | 0.00 | 55 | 1021.7 |
| 20260506020025 | 20 | 274 | 11.3 | 29.0 | 0.00 | 0.00 | 0.00 | 57 | 1021.9 |
| 20260506014522 | 20 | 294 | 9.7 | 22.5 | 0.00 | 0.00 | 0.00 | 61 | 1021.9 |
| 20260506013020 | 19 | 271 | 9.7 | 17.7 | 0.00 | 0.00 | 0.00 | 62 | 1022.0 |
| 20260506011518 | 20 | 265 | 9.7 | 22.5 | 0.00 | 0.00 | 0.00 | 61 | 1022.2 |
| 20260506010017 | 19 | 250 | 8.0 | 17.7 | 0.00 | 0.00 | 0.00 | 62 | 1022.3 |
| 20260506004523 | 20 | 254 | 8.0 | 17.7 | 0.00 | 0.00 | 0.00 | 62 | 1022.6 |
| 20260506003015 | 19 | 237 | 8.0 | 19.3 | 0.00 | 0.00 | 0.00 | 62 | 1022.9 |
| 20260506001511 | 20 | 239 | 11.3 | 20.9 | 0.00 | 0.00 | 0.00 | 58 | 1023.1 |
| 20260506000008 | 18 | 269 | 4.8 | 17.7 | 0.00 | 0.00 | 0.00 | 63 | 1023.4 |
| 20260505234506 | 19 | 271 | 9.7 | 27.4 | 0.00 | 0.00 | 0.00 | 59 | 1023.5 |
| 20260505233004 | 18 | 277 | 8.0 | 17.7 | 0.00 | 0.00 | 0.00 | 61 | 1023.7 |
| 20260505231501 | 18 | 264 | 4.8 | 14.5 | 0.00 | 0.00 | 0.00 | 65 | 1023.8 |
| 20260505230058 | 18 | 265 | 9.7 | 19.3 | 0.00 | 0.00 | 0.00 | 65 | 1023.9 |
| 20260505224558 | 18 | 261 | 6.4 | 17.7 | 0.00 | 0.00 | 0.00 | 64 | 1024.0 |
| 20260505223057 | 17 | 259 | 6.4 | 14.5 | 0.00 | 0.00 | 0.00 | 56 | 1024.1 |
| 20260505221552 | 17 | 256 | 6.4 | 12.9 | 0.00 | 0.00 | 0.00 | 57 | 1024.1 |
| 20260505220047 | 16 | 262 | 4.8 | 16.1 | 0.00 | 0.00 | 0.00 | 59 | 1024.3 |
| 20260505214550 | 16 | 269 | 6.4 | 12.9 | 0.00 | 0.00 | 0.00 | 60 | 1024.4 |
| 20260505213042 | 15 | 264 | 6.4 | 12.9 | 0.00 | 0.00 | 0.00 | 63 | 1024.4 |
| 20260505211535 | 14 | 283 | 6.4 | 14.5 | 0.00 | 0.00 | 0.00 | 66 | 1024.3 |
| 20260505210031 | 13 | 275 | 6.4 | 12.9 | 0.00 | 0.00 | 0.00 | 68 | 1024.6 |
| 20260505204533 | 12 | 261 | 6.4 | 14.5 | 0.00 | 0.00 | 0.00 | 71 | 1024.5 |
| 20260505203031 | 11 | 262 | 4.8 | 9.7 | 0.00 | 0.00 | 0.00 | 72 | 1024.4 |
| 20260505201525 | 11 | 249 | 1.6 | 8.0 | 0.00 | 0.00 | 0.00 | 69 | 1024.3 |
| 20260505200036 | 11 | 240 | 4.8 | 9.7 | 0.00 | 0.00 | 0.00 | 69 | 1024.3 |
| 20260505194522 | 12 | 236 | 3.2 | 6.4 | 0.00 | 0.00 | 0.00 | 66 | 1024.2 |
| 20260505193018 | 11 | 247 | 3.2 | 8.0 | 0.00 | 0.00 | 0.00 | 69 | 1024.2 |
| 20260505191517 | 10 | 255 | 3.2 | 9.7 | 0.00 | 0.00 | 0.00 | 73 | 1024.2 |
| 20260505190017 | 8 | 238 | 0.0 | 4.8 | 0.00 | 0.00 | 0.00 | 80 | 1024.3 |
| 20260505184515 | 8 | 246 | 0.0 | 6.4 | 0.00 | 0.00 | 0.00 | 79 | 1024.3 |
| 20260505183014 | 9 | 258 | 1.6 | 4.8 | 0.00 | 0.00 | 0.00 | 73 | 1024.4 |
| 20260505181515 | 11 | 250 | 0.0 | 4.8 | 0.00 | 0.00 | 0.00 | 70 | 1024.5 |
| 20260505180011 | 11 | 247 | 3.2 | 8.0 | 0.00 | 0.00 | 0.00 | 70 | 1024.7 |
| 20260505174508 | 11 | 250 | 1.6 | 4.8 | 0.00 | 0.00 | 0.00 | 71 | 1024.9 |
| 20260505173004 | 11 | 248 | 3.2 | 6.4 | 0.00 | 0.00 | 0.00 | 74 | 1025.0 |
| 20260505171502 | 10 | 245 | 4.8 | 6.4 | 0.00 | 0.00 | 0.00 | 78 | 1025.0 |
| 20260505170005 | 8 | 234 | 3.2 | 6.4 | 0.00 | 0.00 | 0.00 | 81 | 1024.9 |
| 20260505164622 | 8 | 237 | 3.2 | 6.4 | 0.00 | 0.00 | 0.00 | 83 | 1025.1 |
| 20260505163107 | 7 | 243 | 3.2 | 6.4 | 0.00 | 0.00 | 0.00 | 83 | 1025.2 |
| 20260505161613 | 7 | 261 | 3.2 | 8.0 | 0.00 | 0.00 | 0.00 | 82 | 1025.4 |
| 20260505153047 | 7 | 255 | 1.6 | 4.8 | 0.00 | 0.00 | 0.00 | 87 | 1025.7 |
| 20260505151546 | 6 | 244 | 1.6 | 3.2 | 0.00 | 0.00 | 0.00 | 89 | 1026.0 |
| 20260505124517 | 7 | 261 | 3.2 | 8.0 | 0.00 | 0.00 | 0.00 | 88 | 1027.2 |
| 20260505123013 | 6 | 244 | 3.2 | 9.7 | 0.00 | 0.00 | 0.00 | 89 | 1027.2 |
| 20260505121512 | 6 | 241 | 3.2 | 6.4 | 0.00 | 0.00 | 0.00 | 89 | 1027.1 |
| 20260505120007 | 6 | 248 | 0.0 | 1.6 | 0.00 | 0.00 | 0.00 | 88 | 1027.1 |
| 20260505114504 | 6 | 257 | 0.0 | 3.2 | 0.00 | 0.00 | 0.00 | 87 | 1027.2 |
| 20260505113007 | 6 | 248 | 0.0 | 1.6 | 0.00 | 0.00 | 0.00 | 87 | 1027.3 |
| 20260505111509 | 7 | 248 | 0.0 | 3.2 | 0.00 | 0.00 | 0.00 | 87 | 1027.3 |
| 20260505101604 | 7 | 250 | 1.6 | 4.8 | 0.00 | 0.00 | 0.00 | 88 | 1027.6 |
| 20260505094600 | 7 | 245 | 0.0 | 1.6 | 0.00 | 0.00 | 0.00 | 85 | 1027.6 |
| 20260505093108 | 7 | 245 | 0.0 | 0.0 | 0.00 | 0.00 | 0.00 | 82 | 1027.7 |
| 20260505091558 | 8 | 245 | 0.0 | 1.6 | 0.00 | 0.00 | 0.00 | 81 | 1027.7 |
| 20260505090057 | 10 | 245 | 1.6 | 4.8 | 0.00 | 0.00 | 0.00 | 79 | 1027.6 |
| 20260505084557 | 11 | 272 | 8.0 | 17.7 | 0.00 | 0.00 | 0.00 | 78 | 1027.5 |
| 20260505083058 | 11 | 266 | 8.0 | 14.5 | 0.00 | 0.00 | 0.00 | 79 | 1027.4 |
| 20260505081608 | 11 | 249 | 4.8 | 9.7 | 0.00 | 0.00 | 0.00 | 80 | 1027.5 |
| 20260505080106 | 10 | 235 | 3.2 | 6.4 | 0.00 | 0.00 | 0.00 | 81 | 1027.5 |